JAL320 RJFF-RJTT

Flight info

Callsign JAL320
Flight time 1h 15m
Altitude 33000
Route IPRIR Y231 OMKAT Y235 FLUTE Y23 ARTIC Y71 XAC
Aircraft A359/H-SDE2E3GHIJ1J3J4J5LM1ORWXYZ/LB1D1

Departure

Time 2026-05-04 07:22
Airport Fukuoka Airport (RJFF)

Arrival

Time 2026-05-04 08:37
Airport Tokyo Haneda International Airport (RJTT)
Time Latitude Longitude Altitude Speed Heading
2026-05-04 06:44 33.59844 130.44651 29 ft 0 kts 60°
2026-05-04 07:09 33.59843 130.44650 31 ft 1 kts 60°
2026-05-04 07:09 33.59836 130.44636 31 ft 3 kts 60°
2026-05-04 07:10 33.59826 130.44615 30 ft 3 kts 60°
2026-05-04 07:10 33.59818 130.44596 29 ft 3 kts 72°
2026-05-04 07:12 33.59859 130.44529 28 ft 0 kts 150°
2026-05-04 07:14 33.59824 130.44552 35 ft 8 kts 150°
2026-05-04 07:14 33.59766 130.44592 31 ft 11 kts 150°
2026-05-04 07:15 33.59686 130.44647 31 ft 15 kts 150°
2026-05-04 07:15 33.59620 130.44690 31 ft 7 kts 156°
2026-05-04 07:15 33.59576 130.44671 31 ft 8 kts 215°
2026-05-04 07:15 33.59517 130.44667 31 ft 10 kts 161°
2026-05-04 07:16 33.59444 130.44713 31 ft 14 kts 150°
2026-05-04 07:16 33.59331 130.44790 31 ft 21 kts 150°
2026-05-04 07:16 33.59195 130.44883 31 ft 24 kts 150°
2026-05-04 07:16 33.59044 130.44986 32 ft 26 kts 150°
2026-05-04 07:17 33.58879 130.45098 33 ft 28 kts 150°
2026-05-04 07:17 33.58739 130.45194 34 ft 23 kts 150°
2026-05-04 07:17 33.58591 130.45294 35 ft 25 kts 150°
2026-05-04 07:17 33.58432 130.45402 38 ft 27 kts 150°
2026-05-04 07:18 33.58271 130.45513 39 ft 23 kts 150°
2026-05-04 07:18 33.58151 130.45594 40 ft 20 kts 150°
2026-05-04 07:18 33.58022 130.45681 42 ft 22 kts 150°
2026-05-04 07:18 33.57888 130.45774 46 ft 22 kts 150°
2026-05-04 07:19 33.57788 130.45842 48 ft 16 kts 150°
2026-05-04 07:19 33.57693 130.45907 50 ft 12 kts 150°
2026-05-04 07:19 33.57624 130.45951 47 ft 11 kts 160°
2026-05-04 07:19 33.57557 130.45917 50 ft 12 kts 234°
2026-05-04 07:20 33.57521 130.45842 50 ft 8 kts 245°
2026-05-04 07:20 33.57537 130.45790 48 ft 7 kts 313°
2026-05-04 07:20 33.57585 130.45755 50 ft 10 kts 330°
2026-05-04 07:20 33.57754 130.45639 47 ft 60 kts 330°
2026-05-04 07:22 33.63171 130.41944 3521 ft 156 kts 327°
2026-05-04 07:22 33.64178 130.41267 3852 ft 178 kts 328°
2026-05-04 07:23 33.65471 130.40862 4101 ft 212 kts 359°
2026-05-04 07:23 33.66907 130.41603 4459 ft 247 kts 37°
2026-05-04 07:23 33.67904 130.43384 5095 ft 265 kts 58°
2026-05-04 07:23 33.68655 130.45444 5789 ft 275 kts 65°
2026-05-04 07:24 33.68975 130.47751 6504 ft 289 kts 88°
2026-05-04 07:24 33.68458 130.50121 7240 ft 300 kts 116°
2026-05-04 07:24 33.67080 130.51998 7945 ft 304 kts 147°
2026-05-04 07:24 33.65203 130.53160 8669 ft 304 kts 156°
2026-05-04 07:25 33.63267 130.54211 9392 ft 307 kts 160°
2026-05-04 07:26 33.48836 130.64319 12302 ft 382 kts 140°
2026-05-04 07:27 33.46833 130.66397 12784 ft 387 kts 140°
2026-05-04 07:27 33.44768 130.68544 13295 ft 391 kts 140°
2026-05-04 07:27 33.42899 130.70869 13760 ft 395 kts 127°
2026-05-04 07:27 33.41607 130.73764 14171 ft 396 kts 105°
2026-05-04 07:28 33.41106 130.77000 14587 ft 396 kts 92°
2026-05-04 07:28 33.40869 130.80297 14987 ft 400 kts 91°
2026-05-04 07:28 33.40658 130.83634 15397 ft 404 kts 92°
2026-05-04 07:28 33.40440 130.87011 15790 ft 408 kts 92°
2026-05-04 07:29 33.40216 130.90418 16203 ft 412 kts 92°
2026-05-04 07:29 33.39981 130.93856 16608 ft 416 kts 93°
2026-05-04 07:29 33.39741 130.97319 17023 ft 420 kts 93°
2026-05-04 07:29 33.39501 131.00824 17422 ft 424 kts 93°
2026-05-04 07:30 33.39265 131.04361 17813 ft 428 kts 92°
2026-05-04 07:30 33.39347 131.07921 18210 ft 430 kts 81°
2026-05-04 07:30 33.39842 131.11459 18554 ft 432 kts 75°
2026-05-04 07:30 33.40580 131.14952 18918 ft 434 kts 71°
2026-05-04 07:31 33.41436 131.18447 19188 ft 440 kts 70°
2026-05-04 07:31 33.42330 131.21967 19485 ft 444 kts 70°
2026-05-04 07:33 33.48420 131.47726 21615 ft 474 kts 73°
2026-05-04 07:33 33.49294 131.51548 21927 ft 478 kts 73°
2026-05-04 07:33 33.50180 131.55420 22210 ft 482 kts 73°
2026-05-04 07:33 33.51057 131.59260 22513 ft 486 kts 73°
2026-05-04 07:34 33.51953 131.63187 22784 ft 490 kts 73°
2026-05-04 07:34 33.52853 131.67142 23082 ft 493 kts 74°
2026-05-04 07:34 33.53757 131.71115 23337 ft 497 kts 74°
2026-05-04 07:34 33.54673 131.75134 23611 ft 501 kts 74°
2026-05-04 07:35 33.55591 131.79169 23818 ft 504 kts 74°
2026-05-04 07:35 33.56516 131.83253 24064 ft 507 kts 74°
2026-05-04 07:35 33.57440 131.87344 24316 ft 510 kts 75°
2026-05-04 07:35 33.58365 131.91448 24558 ft 512 kts 75°
2026-05-04 07:36 33.59298 131.95589 24792 ft 515 kts 75°
2026-05-04 07:36 33.60230 131.99733 25029 ft 518 kts 75°
2026-05-04 07:38 33.66880 132.29508 26697 ft 537 kts 77°
2026-05-04 07:38 33.67840 132.33844 26934 ft 540 kts 77°
2026-05-04 07:38 33.68807 132.38214 27165 ft 542 kts 77°
2026-05-04 07:38 33.69766 132.42547 27427 ft 545 kts 77°
2026-05-04 07:39 33.70753 132.47013 27690 ft 548 kts 77°
2026-05-04 07:39 33.71720 132.51400 27948 ft 551 kts 77°
2026-05-04 07:39 33.72700 132.55854 28205 ft 554 kts 78°
2026-05-04 07:39 33.73687 132.60350 28477 ft 557 kts 78°
2026-05-04 07:40 33.74686 132.64912 28760 ft 559 kts 78°
2026-05-04 07:40 33.75664 132.69388 29033 ft 562 kts 78°
2026-05-04 07:40 33.76660 132.73950 29306 ft 565 kts 78°
2026-05-04 07:40 33.77657 132.78530 29579 ft 568 kts 79°
2026-05-04 07:41 33.78662 132.83156 29840 ft 571 kts 79°
2026-05-04 07:41 33.79665 132.87779 30148 ft 573 kts 79°
2026-05-04 07:41 33.80672 132.92430 30428 ft 576 kts 79°
2026-05-04 07:41 33.81683 132.97105 30733 ft 577 kts 79°
2026-05-04 07:42 33.82695 133.01790 31067 ft 580 kts 79°
2026-05-04 07:42 33.83711 133.06493 31417 ft 582 kts 79°
2026-05-04 07:42 33.84728 133.11212 31746 ft 584 kts 79°
2026-05-04 07:42 33.85752 133.15968 32077 ft 587 kts 79°
2026-05-04 07:43 33.86770 133.20721 32370 ft 589 kts 79°
2026-05-04 07:43 33.87788 133.25503 32678 ft 591 kts 79°
2026-05-04 07:43 33.88809 133.30312 32912 ft 593 kts 79°
2026-05-04 07:43 33.89836 133.35146 32967 ft 597 kts 79°
2026-05-04 07:44 33.91888 133.44832 32967 ft 597 kts 79°
2026-05-04 07:44 33.93941 133.54539 32964 ft 598 kts 79°
2026-05-04 07:45 33.95969 133.64211 32963 ft 599 kts 79°
2026-05-04 07:45 33.97880 133.73356 32948 ft 598 kts 79°
2026-05-04 07:46 33.99912 133.83075 32937 ft 598 kts 79°
2026-05-04 07:46 34.01934 133.92812 32923 ft 598 kts 80°
2026-05-04 07:47 34.03956 134.02612 32927 ft 608 kts 80°
2026-05-04 07:49 34.11957 134.42516 32896 ft 612 kts 82°
2026-05-04 07:49 34.13711 134.52577 32885 ft 613 kts 83°
2026-05-04 07:50 34.15479 134.62647 32889 ft 613 kts 82°
2026-05-04 07:50 34.17272 134.72711 32884 ft 613 kts 82°
2026-05-04 07:51 34.19070 134.82795 32903 ft 614 kts 82°
2026-05-04 07:51 34.20858 134.92884 32913 ft 614 kts 82°
2026-05-04 07:52 34.22626 135.02971 32903 ft 614 kts 83°
2026-05-04 07:52 34.24216 135.13084 32887 ft 612 kts 85°
2026-05-04 07:54 34.29631 135.53609 32874 ft 608 kts 85°
2026-05-04 07:55 34.31002 135.63716 32864 ft 607 kts 85°
2026-05-04 07:55 34.32357 135.73792 32867 ft 606 kts 86°
2026-05-04 07:56 34.33697 135.83840 32859 ft 605 kts 86°
2026-05-04 07:56 34.35030 135.93907 32838 ft 605 kts 86°
2026-05-04 07:57 34.36351 136.03957 32825 ft 603 kts 86°
2026-05-04 07:57 34.37661 136.13977 32829 ft 602 kts 86°
2026-05-04 07:58 34.38970 136.24025 32834 ft 605 kts 86°
2026-05-04 07:58 34.40258 136.34019 32829 ft 604 kts 86°
2026-05-04 07:59 34.41545 136.44072 32826 ft 604 kts 86°
2026-05-04 07:59 34.42833 136.54199 32816 ft 605 kts 86°
2026-05-04 08:00 34.44107 136.64241 32815 ft 606 kts 86°
2026-05-04 08:02 34.48900 137.02767 32803 ft 601 kts 88°
2026-05-04 08:02 34.50128 137.12795 32798 ft 601 kts 88°
2026-05-04 08:03 34.51348 137.22819 32792 ft 600 kts 88°
2026-05-04 08:03 34.52321 137.30874 32784 ft 600 kts 88°
2026-05-04 08:04 34.53429 137.40107 32776 ft 599 kts 88°
2026-05-04 08:04 34.54620 137.50097 32839 ft 599 kts 88°
2026-05-04 08:05 34.55801 137.60082 32777 ft 598 kts 88°
2026-05-04 08:05 34.56975 137.70065 32767 ft 597 kts 88°
2026-05-04 08:06 34.58133 137.79994 32763 ft 597 kts 88°
2026-05-04 08:06 34.59288 137.89961 32609 ft 594 kts 88°
2026-05-04 08:08 34.63072 138.23130 29592 ft 556 kts 88°
2026-05-04 08:08 34.63590 138.27756 29039 ft 552 kts 88°
2026-05-04 08:10 34.67581 138.63794 24977 ft 525 kts 88°
2026-05-04 08:11 34.68059 138.68183 24478 ft 523 kts 88°
2026-05-04 08:11 34.69005 138.76916 23449 ft 518 kts 88°
2026-05-04 08:11 34.69473 138.81253 22875 ft 516 kts 88°
2026-05-04 08:12 34.69943 138.85562 22341 ft 512 kts 88°
2026-05-04 08:12 34.70401 138.89821 21869 ft 506 kts 88°
2026-05-04 08:12 34.71134 138.93982 21637 ft 501 kts 75°
2026-05-04 08:12 34.72326 138.97953 21387 ft 501 kts 71°
2026-05-04 08:13 34.73640 139.01895 21127 ft 502 kts 69°
2026-05-04 08:13 34.74972 139.05817 20862 ft 501 kts 69°
2026-05-04 08:13 34.76306 139.09729 20600 ft 498 kts 69°
2026-05-04 08:13 34.77632 139.13610 20246 ft 494 kts 69°
2026-05-04 08:14 34.78946 139.17457 19740 ft 492 kts 69°
2026-05-04 08:14 34.80257 139.21300 19183 ft 490 kts 69°
2026-05-04 08:14 34.81563 139.25132 18609 ft 490 kts 69°
2026-05-04 08:16 34.90436 139.51263 14696 ft 455 kts 69°
2026-05-04 08:16 34.91638 139.54823 14231 ft 451 kts 69°
2026-05-04 08:16 34.92797 139.58253 14083 ft 426 kts 70°
2026-05-04 08:17 34.93895 139.61500 13955 ft 403 kts 70°
2026-05-04 08:17 34.94931 139.64573 13815 ft 382 kts 70°
2026-05-04 08:17 34.95928 139.67541 13695 ft 378 kts 70°
2026-05-04 08:17 34.96910 139.70474 13525 ft 378 kts 70°
2026-05-04 08:19 35.08342 139.87222 13047 ft 372 kts 46°
2026-05-04 08:19 35.09586 139.89978 13055 ft 371 kts 77°
2026-05-04 08:20 35.09807 139.93007 13064 ft 349 kts 109°
2026-05-04 08:20 35.09026 139.95639 13075 ft 313 kts 140°
2026-05-04 08:20 35.07651 139.97563 13047 ft 297 kts 151°
2026-05-04 08:20 35.06406 139.99656 12717 ft 322 kts 129°
2026-05-04 08:21 35.05798 140.02402 12313 ft 349 kts 104°
2026-05-04 08:21 35.06029 140.05403 11955 ft 363 kts 78°
2026-05-04 08:21 35.07075 140.08203 11640 ft 363 kts 57°
2026-05-04 08:21 35.08482 140.10748 11327 ft 360 kts 53°
2026-05-04 08:22 35.09945 140.13257 11013 ft 357 kts 52°
2026-05-04 08:22 35.11458 140.15582 10695 ft 351 kts 40°
2026-05-04 08:24 35.25146 140.24336 7083 ft 287 kts
2026-05-04 08:24 35.27065 140.24923 6513 ft 281 kts
2026-05-04 08:24 35.28941 140.25466 5987 ft 273 kts
2026-05-04 08:24 35.30769 140.25983 5443 ft 267 kts
2026-05-04 08:25 35.32570 140.26484 4816 ft 264 kts
2026-05-04 08:25 35.34360 140.26974 4280 ft 264 kts
2026-05-04 08:25 35.36161 140.27459 4056 ft 266 kts
2026-05-04 08:25 35.37979 140.27943 4020 ft 267 kts
2026-05-04 08:26 35.39792 140.28419 4026 ft 266 kts
2026-05-04 08:27 35.51351 140.27034 4002 ft 200 kts 301°
2026-05-04 08:28 35.51988 140.25570 4006 ft 193 kts 285°
2026-05-04 08:28 35.52590 140.24115 4009 ft 197 kts 293°
2026-05-04 08:28 35.53248 140.22644 4004 ft 196 kts 292°
2026-05-04 08:28 35.53886 140.21165 4004 ft 196 kts 292°
2026-05-04 08:29 35.54521 140.19654 4005 ft 196 kts 291°
2026-05-04 08:29 35.55139 140.18156 4002 ft 197 kts 291°
2026-05-04 08:29 35.55751 140.16659 4002 ft 195 kts 291°
2026-05-04 08:31 35.57050 140.06099 3785 ft 165 kts 269°
2026-05-04 08:33 35.57035 139.96713 2397 ft 148 kts 264°
2026-05-04 08:33 35.57032 139.95500 2184 ft 137 kts 263°
2026-05-04 08:35 35.56995 139.88095 1105 ft 112 kts 261°
2026-05-04 08:35 35.56968 139.87109 885 ft 117 kts 259°
2026-05-04 08:35 35.56875 139.86140 801 ft 115 kts 250°
2026-05-04 08:35 35.56595 139.85217 704 ft 117 kts 238°
2026-05-04 08:37 35.53374 139.81442 52 ft 76 kts 223°
2026-05-04 08:37 35.53089 139.81121 49 ft 34 kts 223°
2026-05-04 08:37 35.52980 139.80970 51 ft 23 kts 238°
2026-05-04 08:38 35.52914 139.80799 50 ft 19 kts 246°
2026-05-04 08:38 35.52879 139.80691 53 ft 12 kts 255°
2026-05-04 08:38 35.52902 139.80600 53 ft 12 kts 314°
2026-05-04 08:40 35.53707 139.79998 27 ft 9 kts 277°
2026-05-04 08:40 35.53686 139.79918 27 ft 11 kts 241°
2026-05-04 08:40 35.53645 139.79830 28 ft 12 kts 240°
2026-05-04 08:41 35.53598 139.79728 30 ft 16 kts 240°
2026-05-04 08:41 35.53541 139.79608 28 ft 16 kts 239°
2026-05-04 08:41 35.53486 139.79494 28 ft 17 kts 239°
2026-05-04 08:41 35.53421 139.79356 28 ft 19 kts 239°
2026-05-04 08:42 35.53380 139.79267 31 ft 9 kts 247°
2026-05-04 08:42 35.53381 139.79185 29 ft 12 kts 286°
2026-05-04 08:42 35.53433 139.79093 29 ft 15 kts 318°
2026-05-04 08:42 35.53520 139.79001 29 ft 18 kts 319°
2026-05-04 08:43 35.53626 139.78889 26 ft 22 kts 319°
2026-05-04 08:43 35.53732 139.78780 27 ft 15 kts 320°
2026-05-04 08:43 35.53816 139.78711 28 ft 16 kts 329°
2026-05-04 08:43 35.53922 139.78636 28 ft 19 kts 330°
2026-05-04 08:44 35.54047 139.78547 27 ft 22 kts 330°
2026-05-04 08:44 35.54190 139.78446 28 ft 25 kts 329°
2026-05-04 08:46 35.54632 139.78389 29 ft 12 kts 60°
2026-05-04 08:46 35.54651 139.78429 29 ft 3 kts 59°
2026-05-04 08:46 35.54657 139.78442 29 ft 0 kts 59°